Location: Thompson
(55.7500°N, 97.8670°W)
Time: 00:17:30
(UTC-05:00)

Amateur Radio Satellites - All Passes

Search period start: 01 July 2015 23:47
Search period end: 02 July 2015 23:47
Location: Thompson, 55.7500°N, 97.8670°W

Satellite Date Start Highest point End Downlink Frequencies (MHz)
Time Altitude Azimuth
PCSat 01 Jul 23:51:21 23:56:23 37° 26° (NNE) 00:01:26 145.827
DX 1 01 Jul 23:59:02 00:02:55 29° 266° (W) 00:06:46 434.975-435.025
50 SAT 01 Jul 23:59:48 00:03:25 37° 263° (W) 00:07:01 437.505
CUBEBUG 2 02 Jul 00:01:04 00:01:38 10° 279° (W) 00:01:59 437.445
BUGSAT 1 02 Jul 00:05:29 00:08:17 18° 88° (E) 00:11:08 437.445
QB50P2 02 Jul 00:05:42 00:09:17 26° 93° (E) 00:12:54 145.880/145.840
POPSAT HIP 1 02 Jul 00:07:14 00:10:49 26° 93° (E) 00:14:25 437.405
ANTELSAT 02 Jul 00:07:21 00:11:37 54° 101° (E) 00:15:57 437.575/2403.000
ZACube-1 02 Jul 00:15:56 00:17:02 11° 278° (W) 00:17:56 437.345
AUBIESAT-1 02 Jul 00:16:33 00:19:44 23° 307° (NW) 00:23:02 437.475
TIGRISAT 02 Jul 00:21:05 00:25:24 69° 102° (ESE) 00:29:47 435.000
AISAT 02 Jul 00:23:59 00:27:57 30° 266° (W) 00:31:53 437.250
BEESAT 02 Jul 00:25:09 00:28:17 18° 51° (NE) 00:31:32 436.000
UKube-1 02 Jul 00:25:32 00:28:45 19° 271° (W) 00:31:53 .
SPROUT 02 Jul 00:28:12 00:32:30 72° 72° (ENE) 00:36:49 437.525
SWISSCUBE 02 Jul 00:39:30 00:43:13 23° 55° (NE) 00:47:02 437.505
ITUPSAT 1 02 Jul 00:43:21 00:47:03 23° 55° (NE) 00:50:51 437.325
ESTCUBE 1 02 Jul 00:45:08 00:49:09 30° 267° (W) 00:53:10 437.505/2401.250
QB50P1 02 Jul 00:46:19 00:50:30 58° 101° (E) 00:54:39 145.935-145.965
M-CUBED/EXP-1 PRIME 02 Jul 00:48:49 00:50:49 14° 314° (NW) 00:52:48 437.505
SO-50 02 Jul 00:50:18 00:55:06 45° 26° (NNE) 00:59:54 436.795
CUBEBUG 1 02 Jul 00:51:30 00:55:25 29° 267° (W) 00:59:17 437.445
UNISAT 6 02 Jul 00:59:39 01:03:54 56° 291° (WNW) 01:08:12 437.425
NANOSAT C BR1 02 Jul 01:01:44 01:05:59 78° 105° (ESE) 01:10:11 145.865
DUCHIFAT 1 02 Jul 01:09:45 01:14:00 89° 83° (E) 01:18:11 145.980
POLYITAN 1 02 Jul 01:10:58 01:15:13 85° 289° (WNW) 01:19:26 437.675
Cosmos 2491 02 Jul 01:16:59 01:24:06 27° 48° (NE) 01:31:20 435.465 / 435.565
VELOX 1 02 Jul 01:17:01 01:18:58 12° 277° (W) 01:20:45 145.980
TISAT 1 02 Jul 01:21:57 01:26:07 53° 259° (W) 01:30:17 437.305
Cosmos 2499 02 Jul 01:32:06 01:36:50 17° 286° (WNW) 01:41:26 435.465 / 435.565
RS-15 02 Jul 01:33:26 01:36:35 12° 91° (E) 01:40:36 29.354- 29.394
PCSat 02 Jul 01:34:52 01:40:20 82° 231° (SW) 01:45:47 145.827
BUGSAT 1 02 Jul 01:40:07 01:44:15 68° 288° (WNW) 01:48:16 437.445
QB50P2 02 Jul 01:41:19 01:45:24 47° 293° (WNW) 01:49:27 145.880/145.840
POPSAT HIP 1 02 Jul 01:42:50 01:46:54 47° 293° (WNW) 01:50:56 437.405
ANTELSAT 02 Jul 01:44:34 01:48:12 26° 300° (WNW) 01:51:48 437.575/2403.000
STARS 02 Jul 01:50:45 01:52:59 14° 50° (NE) 01:55:21 437.465
TIGRISAT 02 Jul 01:58:30 02:01:49 22° 303° (WNW) 02:05:06 435.000
BEESAT 02 Jul 02:00:42 02:05:29 79° 71° (ENE) 02:10:19 436.000
SPROUT 02 Jul 02:06:02 02:09:06 18° 272° (W) 02:12:06 437.525
YUBILEINY 02 Jul 02:08:54 02:11:50 12° 63° (ENE) 02:15:14 435.215
SWISSCUBE 02 Jul 02:15:51 02:20:39 76° 254° (WSW) 02:25:30 437.505
ITUPSAT 1 02 Jul 02:19:43 02:24:31 77° 256° (WSW) 02:29:23 437.325
QB50P1 02 Jul 02:22:40 02:26:06 24° 301° (WNW) 02:29:26 145.935-145.965
Oscar 19 02 Jul 02:25:22 02:29:53 31° 93° (E) 02:34:26 437.125/150
KKS-1 02 Jul 02:25:35 02:29:34 33° 62° (ENE) 02:33:35 437.445
SO-50 02 Jul 02:30:57 02:35:53 63° 229° (SW) 02:40:45 436.795
ITAMSAT 1 02 Jul 02:31:54 02:34:05 13° 81° (E) 02:36:30 435.822/435.867
UNISAT 6 02 Jul 02:38:10 02:39:54 12° 311° (NW) 02:41:30 437.425
NANOSAT C BR1 02 Jul 02:38:21 02:41:22 19° 304° (NW) 02:44:17 145.865
DUCHIFAT 1 02 Jul 02:46:31 02:49:16 17° 306° (NW) 02:51:56 145.980
POLYITAN 1 02 Jul 02:47:54 02:50:33 16° 306° (NW) 02:53:07 437.675
AIST 1 02 Jul 03:05:42 03:09:54 41° 69° (ENE) 03:14:04
Cosmos 2491 02 Jul 03:13:52 03:22:43 77° 75° (ENE) 03:31:27 435.465 / 435.565
BUGSAT 1 02 Jul 03:17:00 03:19:00 13° 309° (NW) 03:20:53 437.445
PCSat 02 Jul 03:19:09 03:23:05 20° 250° (WSW) 03:26:53 145.827
QB50P2 02 Jul 03:19:47 03:20:23 10° 313° (NW) 03:20:52 145.880/145.840
POPSAT HIP 1 02 Jul 03:21:22 03:21:52 10° 313° (NW) 03:22:13 437.405
STARS 02 Jul 03:24:21 03:28:43 66° 70° (ENE) 03:33:06 437.465
RS-15 02 Jul 03:35:51 03:45:55 46° 115° (ESE) 03:56:27 29.354- 29.394
BEESAT 02 Jul 03:40:27 03:43:57 19° 272° (W) 03:47:22 436.000
Gurwin Techsat 1B 02 Jul 03:46:50 03:51:59 46° 98° (E) 03:57:07 435.225
SWISSCUBE 02 Jul 03:56:49 03:59:26 14° 277° (W) 04:01:52 437.505
YUBILEINY 02 Jul 03:58:24 04:06:28 47° 87° (E) 04:14:40 435.215
MOZHAYETS 4 02 Jul 03:58:46 04:02:49 32° 61° (ENE) 04:06:56
ITUPSAT 1 02 Jul 04:00:39 04:03:19 14° 277° (W) 04:05:50 437.325
KKS-1 02 Jul 04:01:53 04:06:09 42° 262° (W) 04:10:24 437.445
Oscar 19 02 Jul 04:04:32 04:09:33 55° 294° (WNW) 04:14:32 437.125/150
ITAMSAT 1 02 Jul 04:09:32 04:14:46 64° 102° (ESE) 04:19:58 435.822/435.867
SO-50 02 Jul 04:12:51 04:15:38 15° 248° (WSW) 04:18:14 436.795
CUBESAT XI-V 02 Jul 04:21:56 04:22:22 10° 44° (NE) 04:22:58 437.345
JAS-2 02 Jul 04:25:40 04:31:23 37° 94° (E) 04:37:48 435.910
AIST 1 02 Jul 04:43:36 04:47:28 30° 270° (W) 04:51:14
HORYU 2 02 Jul 04:45:59 04:49:47 27° 93° (E) 04:53:37 437.375
AO-7 02 Jul 04:51:47 04:59:17 35° 93° (E) 05:06:50 29.400- 29.500
STARS 02 Jul 05:02:15 05:05:37 21° 270° (W) 05:08:55 437.465
Cosmos 2491 02 Jul 05:11:19 05:18:57 34° 279° (W) 05:26:22 435.465 / 435.565
Gurwin Techsat 1B 02 Jul 05:27:00 05:31:57 39° 299° (WNW) 05:36:51 435.225
MOZHAYETS 4 02 Jul 05:35:31 05:39:56 46° 262° (W) 05:44:24
STRAND 1 02 Jul 05:44:06 05:47:51 21° 52° (NE) 05:51:44 437.568
PRISM 02 Jul 05:44:52 05:47:19 16° 53° (NE) 05:49:54 437.425
Oscar 19 02 Jul 05:45:12 05:47:58 14° 315° (NW) 05:50:36 437.125/150
RS-15 02 Jul 05:46:38 05:57:42 80° 323° (NW) 06:09:18 29.354- 29.394
ITAMSAT 1 02 Jul 05:49:29 05:53:59 30° 303° (WNW) 05:58:27 435.822/435.867
CUBESAT XI-V 02 Jul 05:54:19 05:58:43 40° 64° (ENE) 06:03:09 437.345
YUBILEINY 02 Jul 05:54:41 06:03:15 58° 292° (WNW) 06:11:51 435.215
JAS-2 02 Jul 06:10:46 06:16:47 60° 293° (WNW) 06:23:34 435.910
Cosmos 2504 02 Jul 06:11:50 06:18:06 35° 85° (E) 06:24:31 435.465 / 435.565
HORYU 2 02 Jul 06:22:21 06:26:41 51° 293° (WNW) 06:31:00 437.375
CUTE-I 02 Jul 06:25:50 06:28:29 14° 81° (E) 06:31:21 437.470
AO-7 02 Jul 06:44:30 06:52:55 77° 296° (WNW) 07:01:16 29.400- 29.500
Cubesat XI-IV 02 Jul 06:58:11 07:02:28 24° 89° (E) 07:06:50 437.490
M-CUBED/EXP-1 PRIME 02 Jul 07:00:57 07:02:48 14° 46° (NE) 07:04:47 437.505
Gurwin Techsat 1B 02 Jul 07:08:56 07:10:42 11° 320° (NW) 07:12:17 435.225
PRISM 02 Jul 07:17:59 07:22:10 80° 72° (ENE) 07:26:25 437.425
STRAND 1 02 Jul 07:21:18 07:26:29 87° 73° (ENE) 07:31:42 437.568
CUBESAT XI-V 02 Jul 07:31:49 07:36:12 37° 265° (W) 07:40:37 437.345
YUBILEINY 02 Jul 07:56:09 08:02:29 21° 320° (NW) 08:08:37 435.215
JAS-2 02 Jul 07:56:57 08:01:01 19° 314° (NW) 08:05:13 435.910
RS-15 02 Jul 08:00:40 08:11:39 55° 355° (N) 08:23:10 29.354- 29.394
HORYU 2 02 Jul 08:00:47 08:02:26 12° 313° (NW) 08:03:58 437.375
AUBIESAT-1 02 Jul 08:02:14 08:05:24 38° 59° (ENE) 08:08:44 437.475
Cosmos 2504 02 Jul 08:04:03 08:11:10 63° 289° (WNW) 08:18:22 435.465 / 435.565
CUTE-I 02 Jul 08:04:19 08:09:43 68° 103° (ESE) 08:15:04 437.470
CUSAT 1 02 Jul 08:05:40 08:10:08 22° 92° (E) 08:13:57 437.405
M-CUBED/EXP-1 PRIME 02 Jul 08:33:47 08:37:07 90° 169° (S) 08:40:39 437.505
O/OREOS (USA 219) 02 Jul 08:34:08 08:37:49 26° 107° (ESE) 08:41:35 437.305
GOMX 1 02 Jul 08:34:42 08:36:39 13° 82° (E) 08:38:45 467.674
BEESAT 3 02 Jul 08:35:25 08:38:16 19° 118° (ESE) 08:41:12 437.485
GONETS M04 02 Jul 08:36:33 08:42:49 23° 74° (ENE) 08:49:20
AO-7 02 Jul 08:37:42 08:44:44 31° 320° (NW) 08:51:38 29.400- 29.500
Cubesat XI-IV 02 Jul 08:37:46 08:43:11 74° 291° (WNW) 08:48:33 437.490
BEESAT 2 02 Jul 08:43:57 08:46:46 18° 117° (ESE) 08:49:41 435.950
BRITE-PL 02 Jul 08:44:53 08:48:36 25° 90° (E) 08:52:11 437.365/2234.400
DANDE 02 Jul 08:49:29 08:55:47 39° 96° (E) 09:00:45 436.750
PRISM 02 Jul 08:55:31 08:58:13 16° 273° (W) 09:00:48 437.425
UNISAT 6 02 Jul 08:56:40 08:57:38 11° 48° (NE) 08:58:46 437.425
STRAND 1 02 Jul 09:02:44 09:06:27 19° 274° (W) 09:10:03 437.568
COMPASS 1 02 Jul 09:23:33 09:26:01 15° 86° (E) 09:28:37 437.405
CUTE 1.7 + AOD 2 02 Jul 09:24:38 09:27:57 22° 90° (E) 09:31:21 437.475
CANX-2 02 Jul 09:27:28 09:31:00 25° 92° (E) 09:34:36 2200.000
DOVE 4 02 Jul 09:30:22 09:33:53 25° 91° (E) 09:37:24 437.250
QB50P2 02 Jul 09:33:20 09:34:36 11° 48° (NE) 09:35:58 145.880/145.840
POPSAT HIP 1 02 Jul 09:34:45 09:35:59 11° 48° (NE) 09:37:21 437.405
AUBIESAT-1 02 Jul 09:37:33 09:40:21 24° 260° (W) 09:43:13 437.475
ANTELSAT 02 Jul 09:38:28 09:41:38 21° 57° (ENE) 09:44:53 437.575/2403.000
CUTE-I 02 Jul 09:44:51 09:49:28 29° 304° (NW) 09:54:00 437.470
AIST 2 02 Jul 09:45:08 09:48:17 21° 118° (ESE) 09:51:30 435.215
CUSAT 1 02 Jul 09:46:23 09:52:35 75° 285° (WNW) 09:57:12 437.405
HO-68 02 Jul 09:50:14 09:56:59 43° 97° (E) 10:03:46 435.675
TIGRISAT 02 Jul 09:51:37 09:55:05 25° 60° (ENE) 09:58:37 435.000
Cosmos 2504 02 Jul 10:01:22 10:06:24 19° 316° (NW) 10:11:18 435.465 / 435.565
YUBILEINY 02 Jul 10:02:09 10:03:57 11° 353° (N) 10:05:40 435.215
CUBEBUG 2 02 Jul 10:04:01 10:06:26 15° 86° (E) 10:09:01 437.445
GOMX 1 02 Jul 10:11:18 10:15:42 85° 108° (ESE) 10:19:53 467.674
BEESAT 3 02 Jul 10:11:37 10:15:44 90° 322° (NW) 10:19:53 437.485
QB50P1 02 Jul 10:11:48 10:14:54 20° 57° (ENE) 10:18:05 145.935-145.965
M-CUBED/EXP-1 PRIME 02 Jul 10:12:01 10:12:42 10° 269° (W) 10:13:14 437.505
O/OREOS (USA 219) 02 Jul 10:12:34 10:16:59 57° 308° (NW) 10:21:26 437.305
ISS 02 Jul 10:12:40 10:13:26 11° 144° (SE) 10:14:17 145.825
RS-15 02 Jul 10:14:40 10:26:03 67° 26° (NNE) 10:37:59 29.354- 29.394
SEEDS 02 Jul 10:16:38 10:20:48 51° 100° (E) 10:24:58 437.485
ZACube-1 02 Jul 10:17:41 10:19:47 14° 85° (E) 10:22:02 437.345
Cubesat XI-IV 02 Jul 10:18:45 10:22:33 19° 311° (NW) 10:26:14 437.490
BEESAT 2 02 Jul 10:20:11 10:24:20 89° 139° (SE) 10:28:31 435.950
BRITE-PL 02 Jul 10:23:04 10:27:33 52° 292° (WNW) 10:31:42 437.365/2234.400
NANOSAT C BR1 02 Jul 10:26:33 10:30:03 25° 60° (ENE) 10:33:34 145.865
UNISAT 6 02 Jul 10:29:25 10:33:34 50° 68° (ENE) 10:37:43 437.425
GONETS M04 02 Jul 10:29:39 10:38:25 78° 98° (E) 10:47:11
AO-7 02 Jul 10:30:12 10:35:03 17° 347° (NNW) 10:39:51 29.400- 29.500
Oscar 11 02 Jul 10:31:14 10:34:57 27° 93° (E) 10:38:43 145.826/435.025
DANDE 02 Jul 10:32:18 10:38:57 51° 290° (WNW) 10:44:00 436.750
Cosmos 2499 02 Jul 10:33:03 10:37:56 21° 77° (ENE) 10:43:06 435.465 / 435.565
AAUSAT CUBESAT 2 02 Jul 10:34:10 10:38:19 53° 100° (E) 10:42:27 437.432
DUCHIFAT 1 02 Jul 10:34:14 10:37:51 28° 61° (ENE) 10:41:31 145.980
CINEMA 3 02 Jul 10:34:29 10:38:32 48° 99° (E) 10:42:35 145.822/145.860
POLYITAN 1 02 Jul 10:35:55 10:39:38 30° 62° (ENE) 10:43:22 437.675
FUNcube-1 02 Jul 10:54:01 10:57:35 27° 93° (E) 11:01:13 145.935
HUMSAT D 02 Jul 10:57:03 10:59:29 15° 86° (E) 11:02:02 437.325/437.525
COMPASS 1 02 Jul 10:58:04 11:02:19 84° 287° (WNW) 11:06:34 437.405
UWE-3 02 Jul 10:59:34 11:03:27 37° 96° (E) 11:07:24 435.000/436.395/437.385
CUTE 1.7 + AOD 2 02 Jul 11:00:00 11:04:14 59° 291° (WNW) 11:08:27 437.475
BUGSAT 1 02 Jul 11:02:09 11:06:00 35° 64° (ENE) 11:09:50 437.445
CANX-2 02 Jul 11:03:01 11:07:12 51° 292° (WNW) 11:11:21 2200.000
QB50P2 02 Jul 11:05:30 11:09:39 52° 68° (ENE) 11:13:48 145.880/145.840
POPSAT HIP 1 02 Jul 11:06:54 11:11:02 52° 68° (ENE) 11:15:11 437.405
DELFI C3 02 Jul 11:07:10 11:11:03 40° 97° (E) 11:14:55 145.870
DOVE 4 02 Jul 11:07:51 11:11:57 47° 293° (WNW) 11:15:56 437.250
ANTELSAT 02 Jul 11:13:47 11:18:04 70° 257° (WSW) 11:22:20 437.575/2403.000
VELOX 1 02 Jul 11:21:20 11:23:31 14° 84° (E) 11:25:52 145.980
AIST 2 02 Jul 11:22:06 11:26:24 86° 318° (NW) 11:30:43 435.215
TIGRISAT 02 Jul 11:27:25 11:31:37 54° 259° (W) 11:35:49 435.000
50 SAT 02 Jul 11:28:33 11:30:56 16° 88° (E) 11:33:25 437.505
CUSAT 1 02 Jul 11:32:13 11:35:43 16° 303° (WNW) 11:38:37 437.405
HO-68 02 Jul 11:38:02 11:45:02 58° 299° (WNW) 11:52:00 435.675
DX 1 02 Jul 11:39:16 11:43:06 29° 94° (E) 11:46:56 434.975-435.025
CUBEBUG 2 02 Jul 11:39:35 11:43:46 82° 287° (WNW) 11:47:59 437.445
QB50P1 02 Jul 11:46:07 11:50:22 72° 255° (WSW) 11:54:38 145.935-145.965
ISS 02 Jul 11:46:16 11:49:07 29° 163° (SSE) 11:51:59 145.825
GOMX 1 02 Jul 11:50:21 11:53:18 18° 306° (NW) 11:56:06 467.674
BEESAT 3 02 Jul 11:50:27 11:54:08 30° 339° (NNW) 11:57:50 437.485
ZACube-1 02 Jul 11:52:39 11:56:51 88° 104° (ESE) 12:01:06 437.345
SEEDS 02 Jul 11:52:48 11:56:24 27° 299° (WNW) 11:59:57 437.485
O/OREOS (USA 219) 02 Jul 11:54:19 11:57:23 18° 331° (NNW) 12:00:25 437.305
BEESAT 2 02 Jul 11:59:07 12:02:51 31° 339° (NNW) 12:06:35 435.950
YUBILEINY 02 Jul 12:01:26 12:05:54 15° 27° (NNE) 12:10:36 435.215
NANOSAT C BR1 02 Jul 12:01:29 12:05:39 53° 260° (W) 12:09:49 145.865
BRITE-PL 02 Jul 12:03:23 12:05:05 12° 314° (NW) 12:06:38 437.365/2234.400
UKube-1 02 Jul 12:03:50 12:08:00 43° 99° (E) 12:12:09 .
AISAT 02 Jul 12:06:28 12:10:28 32° 95° (E) 12:14:27 437.250
UNISAT 6 02 Jul 12:07:01 12:10:37 25° 268° (W) 12:14:10 437.425
Oscar 11 02 Jul 12:07:09 12:11:21 48° 293° (WNW) 12:15:32 145.826/435.025
DUCHIFAT 1 02 Jul 12:09:25 12:13:31 46° 261° (W) 12:17:37 145.980
AAUSAT CUBESAT 2 02 Jul 12:10:11 12:13:41 25° 300° (WNW) 12:17:07 437.432
POLYITAN 1 02 Jul 12:11:22 12:15:26 43° 261° (W) 12:19:30 437.675
CINEMA 3 02 Jul 12:12:04 12:15:34 26° 299° (WNW) 12:19:03 145.822/145.860
Oscar 19 02 Jul 12:12:14 12:15:59 21° 52° (NE) 12:19:50 437.125/150
AO-7 02 Jul 12:19:50 12:24:45 18° 16° (NNE) 12:29:47 29.400- 29.500
DANDE 02 Jul 12:20:15 12:23:07 13° 310° (NW) 12:25:31 436.750
ITAMSAT 1 02 Jul 12:21:01 12:22:47 12° 40° (NE) 12:24:42 435.822/435.867
Cosmos 2499 02 Jul 12:23:00 12:30:03 83° 100° (E) 12:37:19 435.465 / 435.565
RS-15 02 Jul 12:27:27 12:38:51 67° 234° (SW) 12:50:41 29.354- 29.394
GONETS M04 02 Jul 12:28:14 12:36:14 36° 304° (WNW) 12:44:08
ESTCUBE 1 02 Jul 12:29:30 12:33:44 36° 96° (E) 12:37:57 437.505/2401.250
FUNcube-1 02 Jul 12:30:07 12:34:07 45° 293° (WNW) 12:38:09 145.935
HUMSAT D 02 Jul 12:31:40 12:35:50 82° 286° (WNW) 12:40:00 437.325/437.525
CUBEBUG 1 02 Jul 12:32:10 12:36:09 33° 95° (E) 12:40:07 437.445
COMPASS 1 02 Jul 12:34:47 12:37:25 16° 306° (NW) 12:39:57 437.405
UWE-3 02 Jul 12:36:12 12:39:59 33° 296° (WNW) 12:43:46 435.000/436.395/437.385
BUGSAT 1 02 Jul 12:37:31 12:41:28 36° 263° (W) 12:45:22 437.445
CUTE 1.7 + AOD 2 02 Jul 12:37:34 12:39:22 12° 310° (NW) 12:41:03 437.475
CANX-2 02 Jul 12:41:01 12:42:16 11° 311° (NW) 12:43:23 2200.000
QB50P2 02 Jul 12:42:19 12:45:50 24° 269° (W) 12:49:18 145.880/145.840
DELFI C3 02 Jul 12:42:27 12:46:03 30° 297° (WNW) 12:49:36 145.870
POPSAT HIP 1 02 Jul 12:43:41 12:47:12 24° 269° (W) 12:50:39 437.405
ANTELSAT 02 Jul 12:54:30 12:55:46 11° 278° (W) 12:56:51 437.575/2403.000
VELOX 1 02 Jul 12:56:24 13:00:53 81° 107° (ESE) 13:05:18 145.980
TISAT 1 02 Jul 12:59:49 13:02:16 15° 86° (E) 13:04:51 437.305
AIST 2 02 Jul 13:01:37 13:05:28 31° 340° (NNW) 13:09:18 435.215
50 SAT 02 Jul 13:02:09 13:06:03 72° 288° (WNW) 13:09:57 437.505
JAS-2 02 Jul 13:07:38 13:08:13 10° 33° (NNE) 13:08:57 435.910
DX 1 02 Jul 13:15:20 13:19:32 45° 294° (WNW) 13:23:41 434.975-435.025
CUBEBUG 2 02 Jul 13:17:25 13:19:54 15° 306° (NW) 13:22:18 437.445
ISS 02 Jul 13:22:03 13:25:07 40° 182° (S) 13:28:11 145.825
QB50P1 02 Jul 13:25:34 13:27:06 11° 277° (W) 13:28:27 145.935-145.965
HO-68 02 Jul 13:26:26 13:31:33 21° 322° (NW) 13:36:32 435.675
BEESAT 3 02 Jul 13:29:47 13:33:07 23° 3° (N) 13:36:26 437.485
ZACube-1 02 Jul 13:29:58 13:32:44 17° 305° (NW) 13:35:24 437.345
Gurwin Techsat 1B 02 Jul 13:36:40 13:41:18 32° 58° (ENE) 13:46:00 435.225
O/OREOS (USA 219) 02 Jul 13:38:01 13:38:41 10° 357° (N) 13:39:21 437.305
BEESAT 2 02 Jul 13:38:34 13:41:56 23° 3° (N) 13:45:17 435.950
UKube-1 02 Jul 13:40:10 13:44:02 31° 299° (WNW) 13:47:51 .
AISAT 02 Jul 13:42:58 13:47:10 42° 295° (WNW) 13:51:19 437.250
SPROUT 02 Jul 13:43:20 13:47:32 50° 100° (E) 13:51:42 437.525
Oscar 11 02 Jul 13:45:34 13:46:37 11° 313° (NW) 13:47:31 145.826/435.025
Oscar 19 02 Jul 13:49:37 13:54:46 88° 82° (E) 13:59:58 437.125/150
BEESAT 02 Jul 13:55:04 13:56:57 12° 82° (E) 13:59:03 436.000
ITAMSAT 1 02 Jul 13:56:14 14:01:06 41° 62° (ENE) 14:06:01 435.822/435.867
YUBILEINY 02 Jul 13:58:10 14:06:07 38° 57° (ENE) 14:14:11 435.215
ESTCUBE 1 02 Jul 14:06:23 14:10:39 39° 296° (WNW) 14:14:53 437.505/2401.250
AO-7 02 Jul 14:08:07 14:15:12 33° 42° (NE) 14:22:24 29.400- 29.500
CUBEBUG 1 02 Jul 14:08:28 14:12:37 41° 295° (WNW) 14:16:42 437.445
HUMSAT D 02 Jul 14:08:33 14:11:00 15° 306° (NW) 14:13:22 437.325/437.525
SWISSCUBE 02 Jul 14:09:25 14:12:33 17° 86° (E) 14:15:48 437.505
ITUPSAT 1 02 Jul 14:13:33 14:16:41 17° 86° (E) 14:19:56 437.325
HORYU 2 02 Jul 14:17:38 14:19:44 14° 49° (NE) 14:21:58 437.375
Cosmos 2499 02 Jul 14:18:11 14:24:13 28° 306° (NW) 14:30:19 435.465 / 435.565
Cosmos 2491 02 Jul 14:31:42 14:37:15 20° 71° (ENE) 14:43:09 435.465 / 435.565
GONETS M04 02 Jul 14:31:59 14:36:33 14° 334° (NNW) 14:40:54
VELOX 1 02 Jul 14:33:43 14:36:57 20° 305° (NW) 14:40:07 145.980
TISAT 1 02 Jul 14:34:26 14:38:41 83° 287° (WNW) 14:42:52 437.305
50 SAT 02 Jul 14:38:14 14:40:03 13° 307° (NW) 14:41:46 437.505
RS-15 02 Jul 14:40:45 14:49:21 24° 259° (WSW) 14:57:42 29.354- 29.394
AIST 2 02 Jul 14:41:33 14:45:05 24° 4° (N) 14:48:36 435.215
JAS-2 02 Jul 14:47:06 14:51:45 34° 58° (ENE) 14:56:44 435.910
DX 1 02 Jul 14:53:56 14:54:50 10° 315° (NW) 14:55:35 434.975-435.025
ISS 02 Jul 14:58:21 15:01:04 24° 202° (SSW) 15:03:46 145.825
BEESAT 3 02 Jul 15:08:09 15:12:00 37° 26° (NNE) 15:15:50 437.485
HO-68 02 Jul 15:15:05 15:16:45 11° 348° (NNW) 15:18:19 435.675
Gurwin Techsat 1B 02 Jul 15:15:48 15:21:04 60° 258° (WSW) 15:26:22 435.225
BEESAT 2 02 Jul 15:17:03 15:20:56 37° 26° (NNE) 15:24:47 435.950
O/OREOS (USA 219) 02 Jul 15:17:41 15:20:06 14° 22° (NNE) 15:22:34 437.305
SPROUT 02 Jul 15:19:46 15:23:26 27° 299° (WNW) 15:27:02 437.525
BEESAT 02 Jul 15:31:01 15:35:50 67° 103° (ESE) 15:40:37 436.000
Oscar 19 02 Jul 15:31:16 15:34:55 19° 274° (W) 15:38:25 437.125/150
ITAMSAT 1 02 Jul 15:35:38 15:40:38 43° 262° (W) 15:45:39 435.822/435.867
AIST 1 02 Jul 15:44:27 15:47:13 17° 84° (E) 15:50:07
KKS-1 02 Jul 15:45:31 15:49:01 23° 91° (E) 15:52:35 437.445
SWISSCUBE 02 Jul 15:46:16 15:51:09 88° 280° (W) 15:55:57 437.505
ITUPSAT 1 02 Jul 15:50:27 15:55:19 89° 288° (WNW) 16:00:10 437.325
HORYU 2 02 Jul 15:51:14 15:55:35 61° 69° (ENE) 15:59:59 437.375
Cosmos 2504 02 Jul 15:52:56 15:58:50 25° 51° (NE) 16:05:09 435.465 / 435.565
YUBILEINY 02 Jul 15:55:06 16:03:51 75° 263° (W) 16:12:34 435.215
AO-7 02 Jul 15:58:47 16:07:10 84° 66° (ENE) 16:15:36 29.400- 29.500
TISAT 1 02 Jul 16:11:15 16:13:52 16° 307° (NW) 16:16:21 437.305
CUTE-I 02 Jul 16:18:05 16:20:28 13° 42° (NE) 16:23:00 437.470
AIST 2 02 Jul 16:20:32 16:24:35 40° 27° (NNE) 16:28:36 435.215
Cosmos 2491 02 Jul 16:23:54 16:32:35 67° 94° (E) 16:41:18 435.465 / 435.565
PCSat 02 Jul 16:25:41 16:29:13 18° 109° (ESE) 16:32:55 145.827
JAS-2 02 Jul 16:31:42 16:36:46 52° 261° (W) 16:42:10 435.910
GONETS M04 02 Jul 16:36:39 16:38:33 11° 8° (N) 16:40:32
STARS 02 Jul 16:42:51 16:47:04 45° 99° (E) 16:51:17 437.465
BEESAT 3 02 Jul 16:46:08 16:50:11 61° 229° (SW) 16:54:11 437.485
Cubesat XI-IV 02 Jul 16:49:47 16:53:30 20° 49° (NE) 16:57:20 437.490
BEESAT 2 02 Jul 16:55:09 16:59:15 62° 228° (SW) 17:03:16 435.950
O/OREOS (USA 219) 02 Jul 16:56:34 17:00:48 38° 46° (NE) 17:05:04 437.305
HO-68 02 Jul 16:59:16 17:01:24 12° 16° (NNE) 17:03:37 435.675
Gurwin Techsat 1B 02 Jul 17:00:09 17:02:19 12° 281° (W) 17:04:13 435.225
BEESAT 02 Jul 17:09:22 17:13:20 26° 303° (WNW) 17:17:14 436.000
AIST 1 02 Jul 17:19:56 17:24:22 78° 284° (WNW) 17:28:49
KKS-1 02 Jul 17:21:39 17:26:03 60° 291° (WNW) 17:30:24 437.445
MOZHAYETS 4 02 Jul 17:22:59 17:26:54 27° 91° (E) 17:30:52
SWISSCUBE 02 Jul 17:24:56 17:28:25 20° 307° (NW) 17:31:50 437.505
ITUPSAT 1 02 Jul 17:29:08 17:32:39 20° 307° (NW) 17:36:05 437.325
HORYU 2 02 Jul 17:29:08 17:32:39 22° 270° (W) 17:36:06 437.375
Cosmos 2504 02 Jul 17:46:02 17:53:34 79° 76° (ENE) 18:01:39 435.465 / 435.565
YUBILEINY 02 Jul 17:53:00 17:59:22 22° 286° (WNW) 18:05:26 435.215
AO-7 02 Jul 17:53:40 18:00:59 32° 269° (W) 18:08:13 29.400- 29.500
CUTE-I 02 Jul 17:54:19 17:59:25 46° 63° (ENE) 18:04:34 437.470
AIST 2 02 Jul 17:59:10 18:03:21 57° 229° (SW) 18:07:26 435.215
PCSat 02 Jul 18:06:29 18:11:54 76° 129° (SE) 18:17:22 145.827
STARS 02 Jul 18:19:32 18:23:25 31° 299° (WNW) 18:27:15 437.465
Cosmos 2491 02 Jul 18:21:46 18:30:06 42° 300° (WNW) 18:38:21 435.465 / 435.565
BEESAT 3 02 Jul 18:25:52 18:27:25 12° 247° (WSW) 18:28:46 437.485
BRITE-PL 02 Jul 18:26:18 18:29:29 17° 52° (NE) 18:32:42 437.365/2234.400
Cubesat XI-IV 02 Jul 18:27:31 18:32:53 75° 70° (ENE) 18:38:18 437.490
SO-50 02 Jul 18:32:15 18:36:35 35° 124° (ESE) 18:41:05 436.795
GONETS M04 02 Jul 18:33:42 18:39:59 22° 41° (NE) 18:46:25
BEESAT 2 02 Jul 18:34:54 18:36:34 12° 247° (WSW) 18:38:04 435.950
CUSAT 1 02 Jul 18:34:56 18:36:44 15° 55° (NE) 18:38:27 437.405
O/OREOS (USA 219) 02 Jul 18:36:01 18:40:19 43° 247° (WSW) 18:44:36 437.305
HO-68 02 Jul 18:41:23 18:46:45 24° 41° (NE) 18:52:14 435.675
KKS-1 02 Jul 18:59:44 19:01:54 13° 311° (NW) 19:03:57 437.445
MOZHAYETS 4 02 Jul 18:59:53 19:04:27 55° 291° (WNW) 19:08:59
AIST 1 02 Jul 19:00:18 19:02:52 15° 306° (NW) 19:05:20
DOVE 4 02 Jul 19:07:56 19:10:19 14° 52° (NE) 19:12:45 437.250
CUBESAT XI-V 02 Jul 19:20:30 19:24:50 35° 94° (E) 19:29:08 437.345
DANDE 02 Jul 19:23:25 19:26:37 32° 64° (ENE) 19:29:16 436.750
STRAND 1 02 Jul 19:25:05 19:28:26 18° 85° (E) 19:31:56 437.568
CUTE-I 02 Jul 19:34:34 19:39:37 40° 264° (W) 19:44:41 437.470
AIST 2 02 Jul 19:39:49 19:41:06 11° 248° (WSW) 19:42:13 435.215
Cosmos 2504 02 Jul 19:40:04 19:46:24 30° 278° (W) 19:52:57 435.465 / 435.565
SEEDS 02 Jul 19:42:02 19:44:42 17° 55° (NE) 19:47:28 437.485
GOMX 1 02 Jul 19:48:46 19:53:23 37° 64° (ENE) 19:57:45 467.674
PCSat 02 Jul 19:50:42 19:55:47 38° 332° (NNW) 20:00:52 145.827
AAUSAT CUBESAT 2 02 Jul 19:58:23 20:01:03 17° 55° (NE) 20:03:49 437.432
Oscar 11 02 Jul 20:00:29 20:01:52 12° 48° (NE) 20:03:22 145.826/435.025
BRITE-PL 02 Jul 20:01:57 20:07:20 67° 71° (ENE) 20:12:21 437.365/2234.400
CINEMA 3 02 Jul 20:07:53 20:11:03 20° 57° (ENE) 20:14:14 145.822/145.860
Cubesat XI-IV 02 Jul 20:09:17 20:13:36 24° 271° (W) 20:17:52 437.490
Cosmos 2499 02 Jul 20:11:08 20:15:47 17° 41° (NE) 20:20:50 435.465 / 435.565
SO-50 02 Jul 20:12:07 20:16:57 65° 325° (NW) 20:21:54 436.795
CUSAT 1 02 Jul 20:16:53 20:19:41 35° 263° (W) 20:22:09 437.405
COMPASS 1 02 Jul 20:21:36 20:25:07 28° 62° (ENE) 20:28:43 437.405
FUNcube-1 02 Jul 20:24:23 20:25:25 11° 49° (NE) 20:26:36 145.935
CUTE 1.7 + AOD 2 02 Jul 20:24:29 20:28:24 39° 66° (ENE) 20:32:24 437.475
Cosmos 2491 02 Jul 20:24:49 20:30:07 16° 329° (NNW) 20:35:11 435.465 / 435.565
HO-68 02 Jul 20:26:23 20:33:28 68° 64° (ENE) 20:40:35 435.675
CANX-2 02 Jul 20:27:24 20:31:25 45° 67° (ENE) 20:35:30 2200.000
PRISM 02 Jul 20:28:10 20:32:15 45° 99° (E) 20:36:19 437.425
DELFI C3 02 Jul 20:29:09 20:30:56 13° 52° (NE) 20:32:52 145.870
UWE-3 02 Jul 20:29:55 20:32:10 15° 53° (NE) 20:34:32 435.000/436.395/437.385
GONETS M04 02 Jul 20:30:30 20:39:08 60° 69° (ENE) 20:47:44
MOZHAYETS 4 02 Jul 20:38:40 20:40:48 13° 312° (NW) 20:42:48
DOVE 4 02 Jul 20:42:39 20:47:25 65° 70° (ENE) 20:51:55 437.250
CUBESAT XI-V 02 Jul 20:57:54 21:02:22 43° 295° (WNW) 21:06:48 437.345
STRAND 1 02 Jul 21:03:17 21:08:30 87° 111° (ESE) 21:13:40 437.568
DANDE 02 Jul 21:07:10 21:09:28 17° 273° (W) 21:11:27 436.750
DX 1 02 Jul 21:08:22 21:10:36 14° 50° (NE) 21:12:58 434.975-435.025
CUBEBUG 2 02 Jul 21:09:06 21:12:53 32° 64° (ENE) 21:16:39 437.445
AUBIESAT-1 02 Jul 21:11:18 21:11:59 10° 91° (E) 21:12:53 437.475
SEEDS 02 Jul 21:15:46 21:19:57 89° 247° (WSW) 21:24:12 437.485
ZACube-1 02 Jul 21:20:26 21:23:59 28° 62° (ENE) 21:27:35 437.345
GOMX 1 02 Jul 21:26:38 21:31:30 43° 263° (W) 21:36:03 467.674
UKube-1 02 Jul 21:31:25 21:34:24 19° 54° (NE) 21:37:29 .
AAUSAT CUBESAT 2 02 Jul 21:31:59 21:36:08 87° 255° (WSW) 21:40:21 437.432
Oscar 11 02 Jul 21:33:00 21:37:11 53° 68° (ENE) 21:41:26 145.826/435.025
PCSat 02 Jul 21:36:05 21:40:34 25° 357° (N) 21:45:03 145.827
AISAT 02 Jul 21:37:10 21:39:45 16° 51° (NE) 21:42:25 437.250
M-CUBED/EXP-1 PRIME 02 Jul 21:41:40 21:44:49 22° 99° (E) 21:48:12 437.505
BRITE-PL 02 Jul 21:41:45 21:46:16 26° 270° (W) 21:50:28 437.365/2234.400
CINEMA 3 02 Jul 21:43:25 21:47:53 76° 256° (WSW) 21:52:12 145.822/145.860
SO-50 02 Jul 21:53:50 21:58:16 32° 349° (NNW) 22:02:45 436.795
HUMSAT D 02 Jul 21:55:40 21:59:10 28° 62° (ENE) 22:02:44 437.325/437.525
COMPASS 1 02 Jul 21:56:37 22:00:38 46° 262° (W) 22:04:42 437.405
FUNcube-1 02 Jul 21:56:52 22:00:57 53° 69° (ENE) 22:05:00 145.935
CUTE 1.7 + AOD 2 02 Jul 22:00:37 22:04:25 31° 266° (W) 22:08:14 437.475
DELFI C3 02 Jul 22:01:22 22:05:21 69° 73° (ENE) 22:09:24 145.870
CUBEBUG 1 02 Jul 22:01:34 22:03:59 15° 51° (NE) 22:06:30 437.445
ESTCUBE 1 02 Jul 22:01:39 22:04:31 17° 52° (NE) 22:07:29 437.505/2401.250
Cosmos 2499 02 Jul 22:03:42 22:11:03 52° 68° (ENE) 22:18:59 435.465 / 435.565
PRISM 02 Jul 22:03:52 22:07:33 29° 299° (WNW) 22:11:10 437.425
UWE-3 02 Jul 22:03:53 22:08:07 77° 73° (ENE) 22:12:18 435.000/436.395/437.385
CANX-2 02 Jul 22:03:53 22:07:33 28° 268° (W) 22:11:12 2200.000
HO-68 02 Jul 22:15:15 22:21:46 36° 267° (W) 22:28:14 435.675
50 SAT 02 Jul 22:19:35 22:22:46 26° 62° (ENE) 22:26:01 437.505
DOVE 4 02 Jul 22:21:45 22:25:34 23° 270° (W) 22:29:10 437.250
VELOX 1 02 Jul 22:25:23 22:29:18 31° 61° (ENE) 22:33:17 145.980
GONETS M04 02 Jul 22:27:44 22:35:51 45° 274° (W) 22:43:51
Cosmos 2491 02 Jul 22:30:17 22:32:02 11° 3° (N) 22:33:49 435.465 / 435.565
CUBESAT XI-V 02 Jul 22:37:39 22:38:45 11° 315° (NW) 22:39:42 437.345
DX 1 02 Jul 22:41:46 22:46:08 66° 70° (ENE) 22:50:30 434.975-435.025
STRAND 1 02 Jul 22:43:10 22:47:10 23° 307° (NW) 22:51:04 437.568
AUBIESAT-1 02 Jul 22:43:28 22:47:28 64° 110° (ESE) 22:51:46 437.475
CUBEBUG 2 02 Jul 22:45:32 22:49:34 39° 263° (W) 22:53:31 437.445
SEEDS 02 Jul 22:54:10 22:56:28 14° 276° (W) 22:58:38 437.485
ZACube-1 02 Jul 22:56:10 23:00:13 46° 261° (W) 23:04:16 437.345
ANTELSAT 02 Jul 22:58:57 23:01:25 15° 86° (E) 23:04:02 437.575/2403.000
UKube-1 02 Jul 23:05:41 23:10:02 85° 252° (WSW) 23:14:26 .
Oscar 11 02 Jul 23:10:06 23:13:40 24° 269° (W) 23:17:13 145.826/435.025
AAUSAT CUBESAT 2 02 Jul 23:10:19 23:12:28 13° 276° (W) 23:14:29 437.432
SPROUT 02 Jul 23:10:20 23:13:17 19° 55° (NE) 23:16:20 437.525
AISAT 02 Jul 23:11:11 23:15:39 73° 72° (ENE) 23:20:08 437.250
TIGRISAT 02 Jul 23:11:50 23:14:51 18° 88° (E) 23:17:58 435.000
M-CUBED/EXP-1 PRIME 02 Jul 23:16:00 23:19:55 61° 297° (WNW) 23:24:09 437.505
PCSat 02 Jul 23:20:33 23:25:27 33° 22° (NNE) 23:30:22 145.827
CINEMA 3 02 Jul 23:23:58 23:25:54 12° 277° (W) 23:27:39 145.822/145.860
QB50P1 02 Jul 23:25:28 23:26:58 12° 83° (E) 23:28:40 145.935-145.965
HUMSAT D 02 Jul 23:30:52 23:34:48 43° 262° (W) 23:38:45 437.325/437.525
FUNcube-1 02 Jul 23:34:13 23:37:35 23° 269° (W) 23:40:54 145.935
CUBEBUG 1 02 Jul 23:35:13 23:39:38 69° 71° (ENE) 23:44:04 437.445
SO-50 02 Jul 23:35:28 23:39:57 32° 12° (NNE) 23:44:27 436.795
ESTCUBE 1 02 Jul 23:36:13 23:40:46 80° 71° (ENE) 23:45:21 437.505/2401.250
DELFI C3 02 Jul 23:38:10 23:40:55 17° 272° (W) 23:43:37 145.870
NANOSAT C BR1 02 Jul 23:39:42 23:42:13 16° 86° (E) 23:44:51 145.865
